| time (UTC) | temp C | wind direction | speed KPH | gust KPH | rain 1hr cm | rain 24hr cm | rain mn cm | humidity % | barometer mb |
| 20260504081459 | 8 | 17 | 0.0 | 0.0 | 0.00 | 0.00 | 0.00 | 82 | 1010.1 |
| 20260504050001 | 7 | 317 | 0.0 | 0.0 | 0.00 | 0.00 | 0.00 | 85 | 1011.9 |
| 20260504044500 | 7 | 317 | 0.0 | 0.0 | 0.00 | 0.00 | 0.00 | 84 | 1012.0 |
| 20260504043000 | 7 | 317 | 0.0 | 0.0 | 0.00 | 0.00 | 0.00 | 83 | 1012.0 |
| 20260504041500 | 8 | 317 | 0.0 | 0.0 | 0.00 | 0.00 | 0.00 | 82 | 1012.2 |
| 20260504040006 | 8 | 317 | 0.0 | 0.0 | 0.00 | 0.00 | 0.00 | 81 | 1012.3 |
| 20260504034500 | 8 | 317 | 0.0 | 0.0 | 0.00 | 0.00 | 0.00 | 80 | 1012.4 |
| 20260504031503 | 9 | 309 | 0.0 | 0.0 | 0.00 | 0.00 | 0.00 | 77 | 1012.6 |
| 20260504030002 | 9 | 309 | 0.0 | 0.0 | 0.00 | 0.00 | 0.00 | 76 | 1012.6 |
| 20260504024500 | 10 | 243 | 0.0 | 0.0 | 0.00 | 0.00 | 0.00 | 72 | 1012.7 |
| 20260504023001 | 11 | 243 | 0.0 | 0.0 | 0.00 | 0.00 | 0.00 | 69 | 1012.8 |
| 20260504021500 | 12 | 243 | 0.0 | 0.0 | 0.00 | 0.00 | 0.00 | 63 | 1012.7 |
| 20260504020002 | 12 | 244 | 1.6 | 4.8 | 0.00 | 0.00 | 0.00 | 61 | 1012.7 |
| 20260504014501 | 13 | 218 | 1.6 | 6.4 | 0.00 | 0.00 | 0.00 | 59 | 1012.6 |
| 20260504013001 | 13 | 246 | 3.2 | 9.7 | 0.00 | 0.00 | 0.00 | 58 | 1012.7 |
| 20260504011502 | 13 | 208 | 1.6 | 8.0 | 0.00 | 0.00 | 0.00 | 56 | 1012.7 |
| 20260504010002 | 13 | 271 | 4.8 | 16.1 | 0.00 | 0.00 | 0.00 | 53 | 1012.6 |
| 20260504004502 | 14 | 261 | 6.4 | 16.1 | 0.00 | 0.00 | 0.00 | 50 | 1012.5 |
| 20260504003000 | 14 | 234 | 6.4 | 14.5 | 0.00 | 0.00 | 0.00 | 47 | 1012.4 |
| 20260504000003 | 15 | 235 | 4.8 | 20.9 | 0.00 | 0.00 | 0.00 | 45 | 1012.4 |
| 20260503234500 | 15 | 273 | 6.4 | 22.5 | 0.00 | 0.00 | 0.00 | 45 | 1012.7 |
| 20260503233000 | 15 | 236 | 6.4 | 17.7 | 0.00 | 0.00 | 0.00 | 44 | 1012.6 |
| 20260503231501 | 15 | 208 | 4.8 | 14.5 | 0.00 | 0.00 | 0.00 | 42 | 1012.6 |
| 20260503230002 | 16 | 243 | 6.4 | 20.9 | 0.00 | 0.00 | 0.00 | 42 | 1012.8 |
| 20260503224459 | 16 | 190 | 8.0 | 25.7 | 0.00 | 0.00 | 0.00 | 40 | 1013.2 |
| 20260503222959 | 16 | 198 | 8.0 | 20.9 | 0.00 | 0.00 | 0.00 | 40 | 1013.1 |
| 20260503220000 | 16 | 200 | 9.7 | 19.3 | 0.00 | 0.00 | 0.00 | 40 | 1013.5 |
| 20260503212959 | 16 | 291 | 11.3 | 24.1 | 0.00 | 0.00 | 0.00 | 39 | 1014.1 |
| 20260503211500 | 17 | 263 | 11.3 | 32.2 | 0.00 | 0.00 | 0.00 | 38 | 1014.2 |
| 20260503210000 | 16 | 230 | 11.3 | 24.1 | 0.00 | 0.00 | 0.00 | 38 | 1014.3 |
| 20260503204459 | 16 | 311 | 8.0 | 19.3 | 0.00 | 0.00 | 0.00 | 38 | 1014.5 |
| 20260503202959 | 16 | 197 | 9.7 | 24.1 | 0.00 | 0.00 | 0.00 | 37 | 1015.0 |
| 20260503201500 | 16 | 323 | 11.3 | 27.4 | 0.00 | 0.00 | 0.00 | 38 | 1015.7 |
| 20260503200002 | 15 | 229 | 11.3 | 20.9 | 0.00 | 0.00 | 0.00 | 36 | 1015.6 |
| 20260503194502 | 16 | 286 | 11.3 | 27.4 | 0.00 | 0.00 | 0.00 | 38 | 1015.6 |
| 20260503193001 | 16 | 146 | 8.0 | 27.4 | 0.00 | 0.00 | 0.00 | 37 | 1015.8 |
| 20260503191502 | 14 | 297 | 11.3 | 29.0 | 0.00 | 0.00 | 0.00 | 40 | 1016.1 |
| 20260503190002 | 14 | 271 | 9.7 | 22.5 | 0.00 | 0.00 | 0.00 | 38 | 1016.7 |
| 20260503184501 | 15 | 293 | 9.7 | 25.7 | 0.00 | 0.00 | 0.00 | 37 | 1016.9 |
| 20260503183002 | 16 | 231 | 11.3 | 25.7 | 0.00 | 0.00 | 0.00 | 38 | 1017.0 |
| 20260503181501 | 15 | 285 | 12.9 | 37.0 | 0.00 | 0.00 | 0.00 | 38 | 1017.3 |
| 20260503180001 | 15 | 291 | 11.3 | 33.8 | 0.00 | 0.00 | 0.00 | 37 | 1017.5 |
| 20260503174500 | 15 | 281 | 11.3 | 20.9 | 0.00 | 0.00 | 0.00 | 36 | 1017.7 |
| 20260503173000 | 15 | 278 | 9.7 | 24.1 | 0.00 | 0.00 | 0.00 | 35 | 1017.8 |
| 20260503171500 | 15 | 236 | 9.7 | 24.1 | 0.00 | 0.00 | 0.00 | 36 | 1017.9 |